IRIDIUM 50 [+] (25172 NORAD) Tracking and Keplerian Element Data

This shows tracking and keplerian element data for the satellite.

Feedback or suggestion? Click here.




ElementValue
Catalog25172
NameIRIDIUM 50 [+]
Epoch Orbit6814
Epoch Day198.49761679
Epoch Year2018
RAAN185.1366
Inclination86.3979
Eccentricity0.0002112
Argument of Perigee83.1146
Mean Anonmoly277.029
Mean Motion14.34217818
Decay Rate-7.3E-07
L11 25172U 98010D 18198.49761679 -.00000073 00000-0 -33131-4 0 9998
L22 25172 86.3979 185.1366 0002112 83.1146 277.0290 14.34217818 68145

Live tracking and technical data element details for IRIDIUM 50 [+] (NORAD 25172). IRIDIUM 50 [+] can be tracked NOW for your location showing map with azimuth and elevation plus other details from your city location.

Track the satellite on the map from your city or location and see movement details for azimuth, elevation, latitude, longitude, range, height, and movement on the map or in text.







IsCatalogInMostPopularTable: catalog: 25172, numindb: 31
Update: records affected: 1



GetName: 25172 IRIDIUM 50 [+]

Hit Count: updated at: Fri, 20 Jul 2018 07:02:11 GMT